Location: Arleux
(50.3632°N, 2.8721°E)
Time: 02:53:58
(UTC+00:00)

ATLAS 3B R/B - Pass Details

Date: 15 December 2019
Orbit: 1027 x 1168 km, 63.8° (Epoch: 16 January)

Event Time Altitude Azimuth Distance (km) Brightness Sun altitude
Rises 06:26:36 0° 203° (SSW) 3,809 5.6 -11.2°
Reaches altitude 10° 06:29:17 10° 199° (SSW) 2,845 5.0 -10.8°
Maximum altitude 06:35:45 55° 123° (ESE) 1,221 3.5 -9.9°
Drops below altitude 10° 06:42:12 10° 48° (NE) 2,831 5.2 -8.9°
Sets 06:44:52 0° 44° (NE) 3,789 5.8 -8.6°
